XIWANG-5 02 (67069 NORAD) Tracking and Keplerian Element Data

This shows tracking and keplerian element data for the satellite.

Feedback or suggestion? Click here.




ElementValue
Catalog67069
NameXIWANG-5 02
Epoch Orbit109
Epoch Day354.20836815
Epoch Year2025
RAAN58.9709
Inclination41.3526
Eccentricity0.0014464
Argument of Perigee78.4582
Mean Anonmoly281.7863
Mean Motion15.16815712
Decay Rate8.157E-05
L11 67069U 25296A 25354.20836815 .00008157 00000+0 41582-3 0 9997
L22 67069 41.3526 58.9709 0014464 78.4582 281.7863 15.16815712 1094



Live tracking and technical data element details for XIWANG-5 02 (NORAD 67069). XIWANG-5 02 can be tracked NOW for your location showing map with azimuth and elevation plus other details from your city location.







IsCatalogInMostPopularTable: catalog: 67069, numindb: 13
Update: records affected: 1



GetName: 67069 XIWANG-5 02

Hit Count: updated at: Fri, 16 Jan 2026 09:56:27 GMT